Mazar-I-Sharif, Afghanistan

4:35 PM AFT on August 28, 2016 (GMT +0430)
Mazar

Weather History for OAMS - April, 2014

Change the Weather History Date:

Friday, April 18, 2014

  Actual Average Record
Temperature  
Mean Temperature 66 °F -  
Max Temperature 77 °F 83 °F - ()
Min Temperature 55 °F 58 °F - ()
Cooling Degree Days 1    
Growing Degree Days 16 (Base 50)    
Moisture  
Dew Point 40 °F    
Average Humidity 36    
Maximum Humidity 72    
Minimum Humidity 11    
Precipitation  
Precipitation 0.00 in 0.02 in - ()
Sea Level Pressure  
Sea Level Pressure 30.05 in    
Wind  
Wind Speed 3 mph ()    
Max Wind Speed 7 mph    
Max Gust Speed -    
Visibility 8.9 miles    
Events      
T = Trace of Precipitation, MM = Missing Value Source: Averaged Metar Reports

Daily Weather History Graph

Daily Weather History Graph

Search for Another Location

Airport or City:

Trip Planner

Search our weather history database for the weather conditions in past years. The results will help you decide how hot, cold, wet, or windy it might be!

Date:

Astronomy

Apr. 18, 2014 Rise Set
Actual Time 5:23 AM AFT 6:37 PM AFT
Civil Twilight 4:57 AM AFT 7:04 PM AFT
Nautical Twilight 4:25 AM AFT 7:36 PM AFT
Astronomical Twilight 3:51 AM AFT 8:10 PM AFT
Moon 9:54 PM AFT (4/18) 7:26 AM AFT (4/18)
Length of Visible Light 14h 07m
Length of Day
13h 14m
Waning Gibbous, 90% of the Moon is Illuminated
Apr 18
Waning Gibbous
Apr 22
Last Quarter
Apr 29
New
May 7
First Quarter
May 14
Full

Hourly Weather History & Observations

Time (AFT) Temp. Dew Point Humidity Pressure Visibility Wind Dir Wind Speed Gust Speed Precip Events Conditions
12:20 AM 60.8 °F 48.2 °F 63% 30.04 in 6.2 mi West 1.2 mph - N/A   Partly Cloudy
12:30 AM 61 °F 47 °F 51% 30.02 in 12 mi West 2.2 mph - -   Scattered Clouds
1:30 AM 61 °F 48 °F 51% 30.01 in 12 mi SSE 2.2 mph - -   Scattered Clouds
2:20 AM 60.8 °F 46.4 °F 59% 30.01 in 6.2 mi South 1.2 mph - N/A   Clear
2:30 AM 60 °F 46 °F 50% 30.00 in 12 mi South 2.2 mph - -  
3:20 AM 59.0 °F 44.6 °F 59% 30.01 in 6.2 mi Calm Calm - N/A   Clear
3:30 AM 59 °F 45 °F 50% 30.01 in 12 mi Calm Calm - -  
4:20 AM 57.2 °F 46.4 °F 67% 30.04 in 6.2 mi WNW 3.5 mph - N/A   Clear
4:30 AM 57 °F 46 °F 57%  in 12 mi WNW 4.5 mph - -  
5:20 AM 57.2 °F 48.2 °F 72% 30.04 in 6.2 mi Calm Calm - N/A   Partly Cloudy
5:30 AM 57 °F 47 °F 61% 30.05 in 12 mi Calm Calm - -   Scattered Clouds
6:20 AM 57.2 °F 46.4 °F 67% 30.06 in 6.2 mi SSW 3.5 mph - N/A   Partly Cloudy
6:30 AM 57 °F 46 °F 57% 30.06 in 12 mi SSW 4.5 mph - -   Scattered Clouds
7:20 AM 60.8 °F 48.2 °F 63% 30.09 in 6.2 mi NW 3.5 mph - N/A   Partly Cloudy
7:30 AM 60 °F 49 °F 56% 30.08 in 12 mi NW 4.5 mph - -   Scattered Clouds
8:20 AM 64.4 °F 48.2 °F 56% 30.09 in 6.2 mi NNW 1.2 mph - N/A   Partly Cloudy
8:30 AM 65 °F 48 °F 43% 30.08 in 6 mi NNW 2.2 mph - -   Scattered Clouds
9:20 AM 68.0 °F 46.4 °F 46% 30.09 in 6.2 mi Variable 2.3 mph - N/A   Partly Cloudy
9:30 AM 68 °F 47 °F 36% 30.08 in 9 mi 2.2 mph - -   Scattered Clouds
10:30 AM 70 °F 44 °F 28% 30.07 in 9 mi 2.2 mph - -   Scattered Clouds
11:20 AM 71.6 °F 39.2 °F 31% 30.09 in 6.2 mi NW 5.8 mph - N/A   Partly Cloudy
11:30 AM 72 °F 40 °F 20% 30.05 in 12 mi NW 6.7 mph - -   Scattered Clouds
12:20 PM 73.4 °F 30.2 °F 20% 30.06 in 6.2 mi NW 3.5 mph - N/A   Partly Cloudy
12:30 PM 74 °F 30 °F 11% 30.03 in 12 mi NW 4.5 mph - -   Scattered Clouds
1:20 PM 75.2 °F 30.2 °F 19% 30.06 in 6.2 mi NW 3.5 mph - N/A   Partly Cloudy
1:30 PM 74 °F 30 °F 11% 30.02 in 12 mi NW 4.5 mph - -   Scattered Clouds
2:20 PM 75.2 °F 30.2 °F 19% 30.06 in 6.2 mi Variable 2.3 mph - N/A   Partly Cloudy
2:30 PM 75 °F 31 °F 11% 30.01 in 12 mi 2.2 mph - -   Scattered Clouds
3:20 PM 77.0 °F 32.0 °F 19% 30.04 in 6.2 mi West 2.3 mph - N/A   Partly Cloudy
3:30 PM 77 °F 32 °F 11% 29.99 in 12 mi West 2.2 mph - -   Scattered Clouds
4:20 PM 77.0 °F 32.0 °F 19% 30.04 in 6.2 mi West 3.5 mph - N/A   Partly Cloudy
4:30 PM 76 °F 32 °F 11% 30.00 in 12 mi West 4.5 mph - -   Scattered Clouds
5:20 PM 75.2 °F 32.0 °F 21% 30.06 in 6.2 mi WNW 3.5 mph - N/A   Partly Cloudy
6:20 PM 73.4 °F 35.6 °F 25% 30.06 in 6.2 mi SW 4.6 mph - N/A   Partly Cloudy
6:30 PM 74 °F 35 °F 14% 30.01 in 12 mi WSW 4.5 mph - -   Scattered Clouds
7:20 PM 71.6 °F 37.4 °F 29% 30.06 in 6.2 mi SSW 5.8 mph - N/A   Partly Cloudy
7:30 PM 71 °F 36 °F 18% 30.04 in 12 mi SSW 6.7 mph - -   Scattered Clouds
8:20 PM 68.0 °F 35.6 °F 30% 30.06 in 6.2 mi SSW 5.8 mph - N/A   Partly Cloudy
8:30 PM 69 °F 35 °F 18% 30.05 in 12 mi SSW 6.7 mph - -   Scattered Clouds
9:20 PM 69.8 °F 37.4 °F 31% 30.06 in 6.2 mi South 6.9 mph - N/A   Partly Cloudy
9:30 PM 70 °F 38 °F 20% 30.05 in 12 mi South 6.7 mph - -   Scattered Clouds
10:20 PM 68.0 °F 41.0 °F 37% 30.06 in 6.2 mi SSE 6.9 mph - N/A   Partly Cloudy
10:30 PM 69 °F 40 °F 24% 30.04 in 12 mi SSE 6.7 mph - -   Scattered Clouds
11:20 PM 66.2 °F 39.2 °F 37% 30.06 in 6.2 mi SE 4.6 mph - N/A   Partly Cloudy
11:30 PM 66 °F 40 °F 26% 30.04 in 12 mi SE 4.5 mph - -   Scattered Clouds